Starlink 31886

operational
NORAD ID: 59662 Int'l Des: 2024-084 Owner: SPXS Country: US Constellation: starlink
LEOCIRCULAR

关于 Starlink 31886

正在加载描述...

实时位置

正在加载3D地球...

即将过境

高度历史

Altitude vs Time

uPlot chart will show altitude changes over time

两行轨道根数

1 59662U 24084J 25305.54703646 -.00000789 00000-0 -19152-4 0 9994
2 59662 43.0019 45.6316 0001524 271.6248 88.4429 15.27568154 84779
Epoch: Nov 1, 2025 • Age: 27 hours

当前状态

高度 482.2 km
速度 7.63 km/s
星下点 8.61°N, 128.53°E
发射日期 May 6, 2024
运行时间 1.4 years
类型 internet

技术详情

分类 Payload
质量 730.00 kg
干质量 700.00 kg
总质量 730.00 kg
长度 0.30 m
直径 4.10 m
跨度 29.00 m
形状 Box + pan
制造商 SPXS
平台类型 Starlink V2M
阶段状态 In Orbit
所有者/国家 SPXS/US

大型星座

Loading constellations...